sat.trackr.live / text

‹ back to catalog

STARLINK-5467

NORAD 55660 · 2023-021AJ

PAYLOAD ACTIVE UNKNOWN

§ Identity

Operator
Country
US
Launch date
2023-02-17
Launch site
AFWTR
Launch vehicle
Mass (kg)
RCS (m²)

Purposes: comms

External: N2YO · Heavens-Above · Gunter

§ Orbital elements

Epoch: 2026-09-20T12:41:00.795552Z

Period
96.11 min
Inclination
70.0007°
Eccentricity
0.0003050
Mean motion
14.98313627 rev/d
Perigee alt
570.0 km
Apogee alt
574.2 km
Semi-major
6,950.2 km
B*
-1.8585e-4
RAAN
33.0395°
Arg perigee
268.2718°
Mean anomaly
91.8091°
Rev number
19,847

§ Raw data

STARLINK-54671 55660U 23021AJ  26263.52848143 -.00002309  00000+0 -18585-3 0  99992 55660  70.0007  33.0395 0003050 268.2718  91.8091 14.98313627198474

JSON: /api/v1/satellites/55660 · /tle

For live sub-satellite position, see the globe view (requires WebGL).

§ Visibility from observer

Set your observer location to see the next 7 days of passes ≥ 10°. The values pass through the URL so the page stays shareable.

No JS? Fill the form by hand. The geolocation button needs JavaScript.